Airfield :
LOGIN :

Register | Disclaimer

   EN    FR    IT 

 










Legend :    VFR   Marginal VFR   IFR   Intensive IFR   Very Intensive IFR
Visi :
Ceiling :
>= 8 km
>= 3000ft
5 to 8 km
1000 to 3000 ft
1500m to 5 km
500 to 1000 ft
800 to 1500m
200 to 500 ft
< 800m
< 200 ft
Symbols :   Thunderstorms  Fog  Heavy snow  Heavy precipitations  Wind > 20 kt
SIGMETs :     Misc.  Thunderstorms  Icing  Turbulence  Mountain Waves  Volcanic Ashes







- Airport Elevation : 40 ft
- IATA code : RMI


LIPR - Federico Fellini Int. Rimini

CURRENT METAR :
  • 210750Z 30003KT 270V340 CAVOK 16/05 Q1021

EXPIRED METARs :
  • 210720Z VRB01KT CAVOK 14/08 Q1022
  • 210650Z VRB01KT CAVOK 13/07 Q1022
  • 210620Z VRB01KT CAVOK 11/06 Q1022
  • 210550Z VRB01KT CAVOK 09/06 Q1022
  • 210520Z 19003KT CAVOK 08/05 Q1022

TAF TAF LIPR
Valid from the 21 at 06:00 until the 21 at 15:00 UTC


210500Z 2106/2115 VRB05KT CAVOK
BECMG 2106/2109 09012KT
No reported NOTAMs for that airfield.



MET'MAP, your aeronautical weather chart ! - Copyright ORBIFLY December 2007 - Disclaimer

ORBIFLY MET'MAP TEAM :

Programming & Development : Alexandra Zaïnal
Concept & Development : Baudouin d'Aumeries
Co-Development & Prog : Marc-Olivier Méhu
Technical & hardware support : Manuel Goepfert

Contact : metmap@orbifly.com




SOURCES & CREDITS :

   NOAA